CW4611 Weather Reports


time (UTC)temp
F
wind
direction
speed
knots
gust
knots
rain 1hr
in
rain 24hr
in
rain mn
in
humidity
%
barometer
mb
20240614130106 55 10 0.9 2.6 0.00 0.00 0.00 54 1011.8
20240614124604 57 9 1.7 2.6 0.00 0.00 0.00 47 1011.7
20240614124104 58 9 1.7 5.2 0.00 0.00 0.00 46 1011.6
20240614123105 58 73 3.5 8.7 0.00 0.00 0.00 40 1011.4
20240614121605 57 51 1.7 5.2 0.00 0.00 0.00 44 1011.5
20240614121104 57 36 2.6 5.2 0.00 0.00 0.00 44 1011.4
20240614120606 57 42 2.6 4.3 0.00 0.00 0.00 42 1011.4
20240614120104 58 49 1.7 4.3 0.00 0.00 0.00 42 1011.3
20240614114604 60 41 1.7 5.2 0.00 0.00 0.00 37 1011.2
20240614114104 61 47 1.7 2.6 0.00 0.00 0.00 35 1011.2
20240614113105 63 63 1.7 10.4 0.00 0.00 0.00 31 1011.2
20240614111605 63 83 2.6 7.8 0.00 0.00 0.00 30 1011.3
20240614111104 64 33 3.5 10.4 0.00 0.00 0.00 30 1011.2
20240614110605 64 98 6.1 11.3 0.00 0.00 0.00 29 1011.2
20240614110104 65 125 6.1 12.2 0.00 0.00 0.00 28 1011.3
20240614104605 64 170 5.2 13.9 0.00 0.00 0.00 28 1011.4
20240614104104 64 195 3.5 12.2 0.00 0.00 0.00 28 1011.4
20240614103604 64 207 1.7 6.1 0.00 0.00 0.00 28 1011.4
20240614101604 65 189 2.6 8.7 0.00 0.00 0.00 27 1011.4
20240614101104 65 189 2.6 7.0 0.00 0.00 0.00 27 1011.4
20240614100605 65 217 1.7 4.3 0.00 0.00 0.00 27 1011.3
20240614100105 65 208 1.7 8.7 0.00 0.00 0.00 28 1011.3
20240614094604 65 192 1.7 6.1 0.00 0.00 0.00 27 1011.4
20240614094104 64 217 2.6 10.4 0.00 0.00 0.00 27 1011.5
20240614093604 64 163 1.7 4.3 0.00 0.00 0.00 28 1011.7
20240614091605 63 24 0.9 1.7 0.00 0.00 0.00 30 1011.5
20240614090105 63 4 2.6 5.2 0.00 0.00 0.00 29 1011.5
20240614084106 63 280 1.7 2.6 0.00 0.00 0.00 28 1011.6
20240614064605 60 26 0.9 2.6 0.00 0.00 0.00 29 1011.9
20240614064104 60 3 2.6 2.6 0.00 0.00 0.00 29 1011.8
20240614063604 59 205 0.9 2.6 0.00 0.00 0.00 35 1011.9
20240614061604 59 61 1.7 4.3 0.00 0.00 0.00 32 1012.0
20240614061106 59 19 2.6 4.3 0.00 0.00 0.00 33 1011.9
20240614060604 60 29 2.6 4.3 0.00 0.00 0.00 33 1011.9
20240614060104 60 18 2.6 4.3 0.00 0.00 0.00 32 1012.0
20240614054604 61 27 2.6 4.3 0.00 0.00 0.00 31 1011.8
20240614054104 62 36 1.7 4.3 0.00 0.00 0.00 30 1011.7
20240614053604 62 43 1.7 2.6 0.00 0.00 0.00 29 1011.7
20240614053106 63 47 2.6 7.0 0.00 0.00 0.00 26 1011.7
20240614051104 63 56 2.6 4.3 0.00 0.00 0.00 28 1011.7
20240614050604 63 49 1.7 5.2 0.00 0.00 0.00 27 1011.7
20240614050104 63 75 2.6 5.2 0.00 0.00 0.00 28 1011.7
20240614044604 63 46 1.7 4.3 0.00 0.00 0.00 29 1011.7
20240614044104 62 66 2.6 6.1 0.00 0.00 0.00 29 1011.6
20240614043604 62 51 2.6 4.3 0.00 0.00 0.00 33 1011.6
20240614043105 63 52 1.7 6.1 0.00 0.00 0.00 30 1011.7
20240614041604 63 9 1.7 2.6 0.00 0.00 0.00 32 1011.3
20240614040604 62 10 1.7 2.6 0.00 0.00 0.00 33 1011.2
20240614040105 62 10 1.7 5.2 0.00 0.00 0.00 33 1011.2
20240614034604 63 9 2.6 2.6 0.00 0.00 0.00 33 1011.1
20240614034104 63 9 2.6 4.3 0.00 0.00 0.00 32 1011.0
20240614033604 63 10 1.7 2.6 0.00 0.00 0.00 32 1010.9
20240614033104 63 24 1.7 4.3 0.00 0.00 0.00 32 1010.7
20240614031604 65 21 1.7 4.3 0.00 0.00 0.00 32 1010.5
20240614031104 65 16 1.7 4.3 0.00 0.00 0.00 32 1010.4
20240614030604 66 17 1.7 2.6 0.00 0.00 0.00 31 1010.3
20240614030104 66 29 1.7 2.6 0.00 0.00 0.00 31 1010.3
20240614024604 68 29 0.9 2.6 0.00 0.00 0.00 30 1010.0
20240614024104 68 35 0.9 2.6 0.00 0.00 0.00 30 1010.0
20240614021604 70 12 0.9 2.6 0.00 0.00 0.00 32 1010.0
20240614021104 71 7 1.7 2.6 0.00 0.00 0.00 31 1010.0
20240614020604 71 7 0.9 2.6 0.00 0.00 0.00 30 1010.0
20240614020104 72 9 1.7 2.6 0.00 0.00 0.00 29 1010.0
20240614014604 73 18 1.7 2.6 0.00 0.00 0.00 27 1009.9
20240614014104 74 7 0.9 2.6 0.00 0.00 0.00 26 1009.9
20240614013604 74 353 0.9 2.6 0.00 0.00 0.00 25 1009.9
20240614013104 75 348 0.9 2.6 0.00 0.00 0.00 25 1009.9
20240614011604 76 11 1.7 4.3 0.00 0.00 0.00 25 1009.8
20240614011105 76 340 0.9 2.6 0.00 0.00 0.00 23 1009.8
20240614010104 77 307 1.7 6.1 0.00 0.00 0.00 22 1009.7
20240614004604 78 307 1.7 2.6 0.00 0.00 0.00 21 1009.7
20240614004104 78 214 0.9 4.3 0.00 0.00 0.00 22 1009.7
20240614003104 78 287 1.7 8.7 0.00 0.00 0.00 20 1009.9
20240614001103 79 272 1.7 5.2 0.00 0.00 0.00 18 1010.0
20240614000604 79 303 1.7 5.2 0.00 0.00 0.00 18 1010.0
20240614000104 80 270 3.5 10.4 0.00 0.00 0.00 18 1010.0
20240613234604 81 299 1.7 10.4 0.00 0.00 0.00 19 1010.0
20240613234104 81 317 2.6 7.0 0.00 0.00 0.00 19 1009.9
20240613233106 82 283 2.6 7.8 0.00 0.00 0.00 18 1009.9
20240613231604 82 121 1.7 6.1 0.00 0.00 0.00 20 1010.1
20240613231104 82 317 1.7 7.0 0.00 0.00 0.00 20 1010.2
20240613230104 81 236 2.6 11.3 0.00 0.00 0.00 22 1010.3
20240613224605 83 243 4.3 13.0 0.00 0.00 0.00 19 1010.5
20240613223105 83 235 2.6 7.0 0.00 0.00 0.00 20 1010.5
20240613221605 83 296 4.3 13.9 0.00 0.00 0.00 19 1010.8
20240613220605 83 262 2.6 6.1 0.00 0.00 0.00 20 1010.8
20240613220105 83 245 4.3 11.3 0.00 0.00 0.00 19 1010.9
20240613214605 83 258 2.6 10.4 0.00 0.00 0.00 19 1011.1
20240613214105 83 273 4.3 12.2 0.00 0.00 0.00 19 1011.1
20240613213605 83 231 2.6 8.7 0.00 0.00 0.00 21 1011.2
20240613213105 84 237 4.3 10.4 0.00 0.00 0.00 19 1011.3
20240613211604 83 269 5.2 10.4 0.00 0.00 0.00 19 1011.4
20240613211105 83 204 1.7 10.4 0.00 0.00 0.00 20 1011.4
20240613210605 83 319 3.5 6.1 0.00 0.00 0.00 17 1011.5
20240613210105 83 249 5.2 11.3 0.00 0.00 0.00 17 1011.4
20240613204605 84 250 4.3 11.3 0.00 0.00 0.00 20 1011.7
20240613204105 84 261 4.3 11.3 0.00 0.00 0.00 20 1011.7
20240613203105 84 280 3.5 12.2 0.00 0.00 0.00 23 1011.7
20240613201605 84 268 4.3 8.7 0.00 0.00 0.00 18 1011.6
20240613200604 84 256 2.6 8.7 0.00 0.00 0.00 20 1011.8
20240613200105 84 286 2.6 11.3 0.00 0.00 0.00 23 1011.8
20240613194605 83 265 2.6 7.8 0.00 0.00 0.00 21 1011.9
20240613194104 83 265 4.3 10.4 0.00 0.00 0.00 18 1011.8
20240613193604 83 277 4.3 11.3 0.00 0.00 0.00 21 1011.8
20240613193105 83 234 5.2 12.2 0.00 0.00 0.00 19 1011.9
20240613191605 83 258 2.6 10.4 0.00 0.00 0.00 23 1012.1
20240613191105 83 283 3.5 10.4 0.00 0.00 0.00 19 1012.1
20240613190605 83 239 4.3 8.7 0.00 0.00 0.00 22 1012.1
20240613190105 83 236 2.6 10.4 0.00 0.00 0.00 21 1012.2
20240613184604 84 261 4.3 8.7 0.00 0.00 0.00 20 1012.2
20240613184104 83 277 2.6 6.1 0.00 0.00 0.00 23 1012.2
20240613183605 83 36 1.7 8.7 0.00 0.00 0.00 22 1012.3
20240613183105 82 266 2.6 13.9 0.00 0.00 0.00 22 1012.3
20240613181605 82 248 4.3 10.4 0.00 0.00 0.00 21 1012.4
20240613181105 82 243 3.5 10.4 0.00 0.00 0.00 23 1012.3
20240613180605 82 251 4.3 10.4 0.00 0.00 0.00 25 1012.3
20240613180105 82 268 2.6 10.4 0.00 0.00 0.00 23 1012.4
20240613174605 82 282 3.5 7.8 0.00 0.00 0.00 28 1012.5
20240613174105 82 211 4.3 8.7 0.00 0.00 0.00 22 1012.6
20240613173605 81 233 2.6 8.7 0.00 0.00 0.00 25 1012.6
20240613173105 81 251 1.7 10.4 0.00 0.00 0.00 26 1012.6
20240613171605 81 257 1.7 6.1 0.00 0.00 0.00 27 1012.7
20240613171104 81 258 1.7 7.0 0.00 0.00 0.00 26 1012.6
20240613170605 81 265 1.7 4.3 0.00 0.00 0.00 25 1012.7
20240613170104 80 250 2.6 6.1 0.00 0.00 0.00 25 1012.7
20240613164605 79 226 1.7 5.2 0.00 0.00 0.00 20 1012.9
20240613164105 79 259 1.7 5.2 0.00 0.00 0.00 22 1012.9
20240613163605 78 237 2.6 6.1 0.00 0.00 0.00 25 1012.8
20240613163104 78 305 2.6 7.8 0.00 0.00 0.00 23 1012.8
20240613161604 78 272 2.6 5.2 0.00 0.00 0.00 25 1012.8
20240613161104 78 263 1.7 5.2 0.00 0.00 0.00 27 1012.7
20240613160604 77 238 2.6 6.1 0.00 0.00 0.00 28 1012.7
20240613154605 75 244 1.7 4.3 0.00 0.00 0.00 23 1012.7
20240613153605 75 167 0.9 2.6 0.00 0.00 0.00 37 1012.6
20240613153105 74 180 0.9 2.6 0.00 0.00 0.00 37 1012.6
20240613151604 72 158 0.9 1.7 0.00 0.00 0.00 42 1012.6
20240613150105 70 185 0.9 2.6 0.00 0.00 0.00 44 1012.7
20240613144604 68 182 0.0 2.6 0.00 0.00 0.00 50 1012.7
20240613144105 68 160 0.9 2.6 0.00 0.00 0.00 46 1012.7
20240613143605 67 191 2.6 2.6 0.00 0.00 0.00 46 1012.8
20240613143105 67 146 1.7 2.6 0.00 0.00 0.00 44 1012.7
20240613141605 65 42 0.9 2.6 0.00 0.00 0.00 44 1012.9
20240613141104 65 56 1.7 2.6 0.00 0.00 0.00 42 1012.7
20240613140604 64 87 1.7 4.3 0.00 0.00 0.00 40 1012.7
20240613140105 63 13 1.7 2.6 0.00 0.00 0.00 50 1012.8
20240613134604 61 71 2.6 5.2 0.00 0.00 0.00 41 1012.7
20240613133604 59 70 1.7 2.6 0.00 0.00 0.00 54 1012.6
20240613133105 59 80 1.7 2.6 0.00 0.00 0.00 48 1012.6
20240613131605 59 60 1.7 2.6 0.00 0.00 0.00 46 1012.4
20240613131104 58 54 2.6 5.2 0.00 0.00 0.00 49 1012.5
20240613130605 58 63 4.3 8.7 0.00 0.00 0.00 48 1012.5